ABY865 OPPS-OMRK

Flight info

Callsign ABY865
Flight time 2h 43m
Altitude 34000
Route HANGU G325 PG T385 TAPDO A454 VUSET N571 MENSA/N0394F160 N317 NOLSU DCT NADNI
Aircraft A320/M-SDE3FGHIRWY/LB1

Departure

Time 2026-04-29 14:21
Airport Bacha Khan International Airport (OPPS)

Arrival

Time 2026-04-29 17:05
Airport Ras Al Khaimah International Airport (OMRK)
Time Latitude Longitude Altitude Speed Heading
2026-04-29 14:15 33.99070 71.51749 1205 ft 0 kts 24°
2026-04-29 14:16 33.99079 71.51753 1205 ft 5 kts 19°
2026-04-29 14:17 33.99132 71.51779 1204 ft 9 kts 26°
2026-04-29 14:17 33.99197 71.51818 1203 ft 12 kts 25°
2026-04-29 14:17 33.99274 71.51843 1202 ft 11 kts 354°
2026-04-29 14:17 33.99322 71.51787 1201 ft 9 kts 292°
2026-04-29 14:18 33.99349 71.51721 1200 ft 8 kts 298°
2026-04-29 14:18 33.99382 71.51646 1200 ft 15 kts 297°
2026-04-29 14:18 33.99438 71.51508 1198 ft 20 kts 294°
2026-04-29 14:18 33.99534 71.51447 1197 ft 15 kts 355°
2026-04-29 14:19 33.99649 71.51436 1198 ft 20 kts 356°
2026-04-29 14:19 33.99823 71.51424 1195 ft 30 kts 355°
2026-04-29 14:19 34.00061 71.51401 1191 ft 39 kts 356°
2026-04-29 14:19 34.00353 71.51378 1183 ft 43 kts 354°
2026-04-29 14:20 34.00517 71.51332 1175 ft 19 kts 314°
2026-04-29 14:20 34.00555 71.51356 1177 ft 11 kts 149°
2026-04-29 14:20 34.00530 71.51361 1180 ft 0 kts 176°
2026-04-29 14:20 34.00458 71.51367 1178 ft 34 kts 176°
2026-04-29 14:21 34.00003 71.51406 1192 ft 94 kts 178°
2026-04-29 14:21 33.99187 71.51476 1201 ft 139 kts 175°
2026-04-29 14:21 33.98109 71.51573 1307 ft 165 kts 173°
2026-04-29 14:21 33.97003 71.51685 1881 ft 157 kts 172°
2026-04-29 14:22 33.95888 71.51801 2365 ft 161 kts 172°
2026-04-29 14:22 33.94765 71.51890 2805 ft 166 kts 172°
2026-04-29 14:22 33.93611 71.52024 3235 ft 167 kts 172°
2026-04-29 14:22 33.93127 71.52075 3412 ft 167 kts 174°
2026-04-29 14:23 33.91949 71.52156 3694 ft 177 kts 175°
2026-04-29 14:23 33.91547 71.52183 3779 ft 181 kts 174°
2026-04-29 14:23 33.90259 71.52278 4026 ft 193 kts 175°
2026-04-29 14:23 33.88883 71.52388 4268 ft 206 kts 174°
2026-04-29 14:24 33.88031 71.52456 4395 ft 215 kts 174°
2026-04-29 14:24 33.85943 71.52618 4622 ft 242 kts 175°
2026-04-29 14:24 33.84787 71.52711 4729 ft 259 kts 175°
2026-04-29 14:24 33.82988 71.52860 4967 ft 277 kts 175°
2026-04-29 14:25 33.81159 71.53009 5655 ft 280 kts 175°
2026-04-29 14:25 33.79328 71.53157 6484 ft 276 kts 176°
2026-04-29 14:25 33.77389 71.53305 7107 ft 283 kts 176°
2026-04-29 14:25 33.75355 71.53430 7621 ft 293 kts 177°
2026-04-29 14:26 33.73318 71.53586 8366 ft 293 kts 176°
2026-04-29 14:26 33.71254 71.53787 9089 ft 296 kts 176°
2026-04-29 14:26 33.69179 71.53985 9679 ft 303 kts 176°
2026-04-29 14:26 33.68423 71.54056 9873 ft 306 kts 176°
2026-04-29 14:27 33.67666 71.54126 10065 ft 308 kts 178°
2026-04-29 14:27 33.65525 71.53824 10514 ft 314 kts 201°
2026-04-29 14:27 33.63603 71.52519 10840 ft 325 kts 223°
2026-04-29 14:28 33.61546 71.48997 11264 ft 343 kts 252°
2026-04-29 14:28 33.60900 71.46579 11459 ft 356 kts 253°
2026-04-29 14:28 33.60194 71.44002 11617 ft 370 kts 253°
2026-04-29 14:28 33.59370 71.40924 11916 ft 382 kts 253°
2026-04-29 14:29 33.58583 71.37950 12430 ft 385 kts 253°
2026-04-29 14:29 33.57843 71.35136 12961 ft 387 kts 254°
2026-04-29 14:29 33.57104 71.32332 13432 ft 390 kts 253°
2026-04-29 14:29 33.56254 71.29215 13906 ft 393 kts 253°
2026-04-29 14:30 33.55443 71.26198 14393 ft 395 kts 253°
2026-04-29 14:30 33.54663 71.23307 14872 ft 397 kts 253°
2026-04-29 14:30 33.53815 71.20141 15351 ft 399 kts 253°
2026-04-29 14:30 33.52977 71.16987 15853 ft 402 kts 254°
2026-04-29 14:31 33.52127 71.13780 16357 ft 404 kts 253°
2026-04-29 14:31 33.51269 71.10561 16857 ft 407 kts 253°
2026-04-29 14:31 33.50402 71.07320 17338 ft 410 kts 253°
2026-04-29 14:31 33.49336 71.04143 17804 ft 413 kts 244°
2026-04-29 14:32 33.47782 71.01241 18226 ft 418 kts 233°
2026-04-29 14:32 33.45759 70.98706 18615 ft 423 kts 222°
2026-04-29 14:32 33.43375 70.96665 18979 ft 427 kts 213°
2026-04-29 14:32 33.40839 70.94778 19332 ft 430 kts 213°
2026-04-29 14:33 33.38299 70.92888 19688 ft 432 kts 213°
2026-04-29 14:33 33.35745 70.90985 20041 ft 434 kts 213°
2026-04-29 14:33 33.33167 70.89060 20380 ft 436 kts 213°
2026-04-29 14:33 33.30582 70.87133 20720 ft 439 kts 213°
2026-04-29 14:34 33.27986 70.85202 21048 ft 441 kts 213°
2026-04-29 14:34 33.25377 70.83265 21373 ft 443 kts 213°
2026-04-29 14:34 33.22741 70.81306 21688 ft 445 kts 213°
2026-04-29 14:34 33.20107 70.79348 21996 ft 447 kts 213°
2026-04-29 14:35 33.17454 70.77378 22305 ft 449 kts 213°
2026-04-29 14:35 33.14798 70.75405 22602 ft 450 kts 213°
2026-04-29 14:35 33.12134 70.73426 22908 ft 452 kts 213°
2026-04-29 14:35 33.09460 70.71441 23201 ft 454 kts 213°
2026-04-29 14:36 33.06774 70.69448 23447 ft 456 kts 213°
2026-04-29 14:36 33.04109 70.67475 23689 ft 457 kts 213°
2026-04-29 14:36 33.01406 70.65478 23926 ft 458 kts 213°
2026-04-29 14:36 32.98689 70.63469 24165 ft 459 kts 213°
2026-04-29 14:37 32.95970 70.61464 24396 ft 460 kts 213°
2026-04-29 14:37 32.93238 70.59452 24615 ft 462 kts 213°
2026-04-29 14:37 32.90517 70.57421 24832 ft 462 kts 213°
2026-04-29 14:37 32.87802 70.55350 25041 ft 463 kts 214°
2026-04-29 14:38 32.85106 70.53267 25251 ft 464 kts 214°
2026-04-29 14:38 32.82385 70.51158 25446 ft 465 kts 214°
2026-04-29 14:38 32.79663 70.49054 25637 ft 467 kts 214°
2026-04-29 14:38 32.76935 70.46959 25821 ft 468 kts 214°
2026-04-29 14:39 32.74192 70.44865 25994 ft 469 kts 214°
2026-04-29 14:39 32.71469 70.42789 26163 ft 470 kts 214°
2026-04-29 14:39 32.68718 70.40689 26375 ft 469 kts 214°
2026-04-29 14:39 32.65977 70.38598 26626 ft 468 kts 214°
2026-04-29 14:40 32.63235 70.36516 26862 ft 468 kts 213°
2026-04-29 14:40 32.60471 70.34495 27079 ft 468 kts 212°
2026-04-29 14:40 32.57669 70.32536 27315 ft 467 kts 212°
2026-04-29 14:40 32.54845 70.30611 27545 ft 467 kts 211°
2026-04-29 14:41 32.52024 70.28700 27771 ft 467 kts 211°
2026-04-29 14:41 32.49212 70.26786 28003 ft 466 kts 212°
2026-04-29 14:41 32.46405 70.24858 28239 ft 466 kts 212°
2026-04-29 14:41 32.43613 70.22924 28484 ft 465 kts 212°
2026-04-29 14:42 32.40822 70.20982 28733 ft 465 kts 213°
2026-04-29 14:42 32.38030 70.19039 28982 ft 464 kts 213°
2026-04-29 14:42 32.35249 70.17099 29231 ft 463 kts 213°
2026-04-29 14:42 32.32492 70.15133 29485 ft 463 kts 214°
2026-04-29 14:43 32.29746 70.13145 29726 ft 462 kts 214°
2026-04-29 14:43 32.27047 70.11175 29934 ft 461 kts 214°
2026-04-29 14:43 32.24318 70.09180 30120 ft 461 kts 215°
2026-04-29 14:43 32.21580 70.07190 30334 ft 460 kts 215°
2026-04-29 14:44 32.18849 70.05220 30511 ft 461 kts 215°
2026-04-29 14:44 32.16113 70.03253 30669 ft 461 kts 215°
2026-04-29 14:44 32.13376 70.01290 30850 ft 461 kts 216°
2026-04-29 14:44 32.10636 69.99326 31041 ft 460 kts 216°
2026-04-29 14:45 32.07899 69.97365 31226 ft 460 kts 216°
2026-04-29 14:45 32.05165 69.95406 31412 ft 460 kts 217°
2026-04-29 14:45 32.02431 69.93449 31591 ft 460 kts 217°
2026-04-29 14:45 31.99737 69.91521 31744 ft 460 kts 217°
2026-04-29 14:46 31.96960 69.89535 31884 ft 460 kts 217°
2026-04-29 14:46 31.94259 69.87607 32036 ft 460 kts 217°
2026-04-29 14:46 31.91526 69.85661 32193 ft 460 kts 218°
2026-04-29 14:46 31.88778 69.83702 32392 ft 459 kts 218°
2026-04-29 14:47 31.86044 69.81750 32595 ft 459 kts 218°
2026-04-29 14:47 31.83318 69.79802 32761 ft 458 kts 218°
2026-04-29 14:47 31.80589 69.77852 32926 ft 459 kts 219°
2026-04-29 14:47 31.78782 69.76564 33045 ft 458 kts 219°
2026-04-29 14:48 31.75133 69.73966 33282 ft 458 kts 219°
2026-04-29 14:48 31.72430 69.72046 33447 ft 458 kts 219°
2026-04-29 14:48 31.69696 69.70107 33631 ft 458 kts 220°
2026-04-29 14:48 31.66972 69.68174 33736 ft 459 kts 220°
2026-04-29 14:49 31.64238 69.66232 33760 ft 461 kts 220°
2026-04-29 14:49 31.58738 69.62330 33752 ft 462 kts 220°
2026-04-29 14:50 31.53229 69.58430 33755 ft 462 kts 220°
2026-04-29 14:50 31.47750 69.54568 33747 ft 462 kts 220°
2026-04-29 14:51 31.42238 69.50680 33744 ft 462 kts 221°
2026-04-29 14:51 31.36754 69.46736 33735 ft 456 kts 226°
2026-04-29 14:51 31.34359 69.44394 33727 ft 443 kts 235°
2026-04-29 14:52 31.32277 69.41762 33722 ft 439 kts 237°
2026-04-29 14:52 31.28153 69.36476 33724 ft 439 kts 237°
2026-04-29 14:53 31.24047 69.31261 33729 ft 439 kts 237°
2026-04-29 14:53 31.19906 69.26017 33738 ft 438 kts 237°
2026-04-29 14:54 31.15782 69.20779 33741 ft 437 kts 237°
2026-04-29 14:54 31.11670 69.15553 33743 ft 437 kts 237°
2026-04-29 14:55 31.07557 69.10339 33745 ft 437 kts 238°
2026-04-29 14:55 31.03438 69.05133 33744 ft 436 kts 238°
2026-04-29 14:56 30.99321 68.99941 33762 ft 436 kts 238°
2026-04-29 14:56 30.95210 68.94763 33754 ft 435 kts 238°
2026-04-29 14:57 30.91097 68.89581 33764 ft 435 kts 238°
2026-04-29 14:57 30.86985 68.84409 33752 ft 435 kts 238°
2026-04-29 14:58 30.82895 68.79279 33758 ft 435 kts 238°
2026-04-29 14:58 30.78779 68.74128 33751 ft 434 kts 238°
2026-04-29 14:59 30.74634 68.68939 33756 ft 434 kts 238°
2026-04-29 14:59 30.70530 68.63794 33752 ft 434 kts 238°
2026-04-29 15:00 30.66420 68.58648 33759 ft 434 kts 238°
2026-04-29 15:00 30.62309 68.53527 33762 ft 434 kts 238°
2026-04-29 15:01 30.58196 68.48409 33768 ft 433 kts 238°
2026-04-29 15:01 30.54099 68.43313 33778 ft 433 kts 238°
2026-04-29 15:02 30.49973 68.38184 33785 ft 433 kts 238°
2026-04-29 15:02 30.45887 68.33113 33786 ft 433 kts 238°
2026-04-29 15:03 30.41760 68.27995 33795 ft 433 kts 238°
2026-04-29 15:03 30.38339 68.23757 33797 ft 433 kts 238°
2026-04-29 15:04 30.34220 68.18662 33791 ft 433 kts 238°
2026-04-29 15:04 30.30089 68.13564 33800 ft 433 kts 238°
2026-04-29 15:05 30.25959 68.08474 33798 ft 433 kts 238°
2026-04-29 15:05 30.21839 68.03405 33782 ft 432 kts 238°
2026-04-29 15:06 30.17756 67.98373 33767 ft 433 kts 238°
2026-04-29 15:06 30.13599 67.93264 33751 ft 433 kts 238°
2026-04-29 15:07 30.09490 67.88234 33733 ft 433 kts 238°
2026-04-29 15:07 30.05346 67.83132 33734 ft 432 kts 238°
2026-04-29 15:08 30.01277 67.78078 33713 ft 432 kts 238°
2026-04-29 15:08 29.97183 67.73003 33713 ft 431 kts 238°
2026-04-29 15:09 29.93079 67.67932 33681 ft 433 kts 238°
2026-04-29 15:09 29.88957 67.62852 33679 ft 433 kts 238°
2026-04-29 15:10 29.84830 67.57775 33677 ft 433 kts 238°
2026-04-29 15:10 29.80708 67.52711 33690 ft 433 kts 238°
2026-04-29 15:11 29.76594 67.47660 33701 ft 432 kts 238°
2026-04-29 15:11 29.72483 67.42605 33701 ft 432 kts 238°
2026-04-29 15:12 29.68374 67.37545 33703 ft 433 kts 238°
2026-04-29 15:12 29.64269 67.32482 33713 ft 435 kts 238°
2026-04-29 15:13 29.60125 67.27398 33754 ft 436 kts 237°
2026-04-29 15:13 29.55959 67.22296 33756 ft 438 kts 237°
2026-04-29 15:14 29.51782 67.17187 33780 ft 438 kts 237°
2026-04-29 15:14 29.47602 67.12080 33804 ft 439 kts 237°
2026-04-29 15:15 29.43528 67.07120 33819 ft 441 kts 236°
2026-04-29 15:15 29.39415 67.02411 33810 ft 441 kts 236°
2026-04-29 15:16 29.35261 66.97263 33832 ft 439 kts 238°
2026-04-29 15:16 29.31178 66.92054 33849 ft 439 kts 237°
2026-04-29 15:17 29.27011 66.86905 33865 ft 441 kts 236°
2026-04-29 15:17 29.22781 66.81809 33877 ft 442 kts 236°
2026-04-29 15:18 29.18539 66.76712 33884 ft 442 kts 236°
2026-04-29 15:18 29.14304 66.71600 33905 ft 442 kts 236°
2026-04-29 15:19 29.10089 66.66501 33902 ft 442 kts 236°
2026-04-29 15:19 29.05864 66.61399 33902 ft 442 kts 236°
2026-04-29 15:20 29.01639 66.56302 33906 ft 441 kts 236°
2026-04-29 15:20 28.97424 66.51188 33905 ft 441 kts 236°
2026-04-29 15:21 28.93225 66.46091 33912 ft 441 kts 236°
2026-04-29 15:21 28.89008 66.40997 33907 ft 441 kts 236°
2026-04-29 15:22 28.84812 66.35954 33906 ft 441 kts 235°
2026-04-29 15:22 28.80590 66.30873 33904 ft 440 kts 235°
2026-04-29 15:23 28.76382 66.25802 33900 ft 440 kts 235°
2026-04-29 15:23 28.72168 66.20729 33883 ft 440 kts 235°
2026-04-29 15:24 28.67952 66.15673 33875 ft 441 kts 235°
2026-04-29 15:24 28.63718 66.10610 33875 ft 441 kts 235°
2026-04-29 15:25 28.59489 66.05557 33871 ft 440 kts 235°
2026-04-29 15:25 28.55269 66.00504 33849 ft 440 kts 235°
2026-04-29 15:26 28.51048 65.95459 33833 ft 440 kts 235°
2026-04-29 15:26 28.46846 65.90440 33824 ft 440 kts 235°
2026-04-29 15:27 28.42621 65.85406 33810 ft 441 kts 235°
2026-04-29 15:27 28.38378 65.80361 33806 ft 441 kts 234°
2026-04-29 15:28 28.34139 65.75345 33803 ft 441 kts 234°
2026-04-29 15:28 28.29925 65.70357 33799 ft 440 kts 234°
2026-04-29 15:29 28.25686 65.65330 33794 ft 440 kts 234°
2026-04-29 15:30 28.17198 65.55294 33789 ft 440 kts 234°
2026-04-29 15:30 28.12965 65.50285 33788 ft 438 kts 234°
2026-04-29 15:31 28.08739 65.45287 33787 ft 439 kts 234°
2026-04-29 15:31 28.04508 65.40304 33788 ft 439 kts 234°
2026-04-29 15:32 28.00294 65.35354 33787 ft 439 kts 234°
2026-04-29 15:32 27.96063 65.30379 33787 ft 439 kts 234°
2026-04-29 15:33 27.91826 65.25414 33787 ft 439 kts 233°
2026-04-29 15:33 27.87588 65.20451 33784 ft 438 kts 233°
2026-04-29 15:34 27.83358 65.15498 33791 ft 438 kts 233°
2026-04-29 15:34 27.79128 65.10546 33791 ft 438 kts 233°
2026-04-29 15:35 27.74891 65.05596 33789 ft 438 kts 233°
2026-04-29 15:35 27.70648 65.00656 33789 ft 438 kts 233°
2026-04-29 15:36 27.66412 64.95725 33780 ft 438 kts 233°
2026-04-29 15:36 27.62175 64.90788 33791 ft 438 kts 233°
2026-04-29 15:37 27.57941 64.85864 33781 ft 438 kts 233°
2026-04-29 15:37 27.53727 64.80967 33783 ft 438 kts 233°
2026-04-29 15:38 27.49474 64.76041 33788 ft 438 kts 233°
2026-04-29 15:38 27.45218 64.71117 33797 ft 438 kts 233°
2026-04-29 15:39 27.40956 64.66194 33788 ft 440 kts 233°
2026-04-29 15:39 27.36688 64.61258 33791 ft 439 kts 233°
2026-04-29 15:40 27.32431 64.56333 33796 ft 439 kts 233°
2026-04-29 15:40 27.28196 64.51445 33788 ft 439 kts 233°
2026-04-29 15:41 27.23922 64.46523 33785 ft 440 kts 232°
2026-04-29 15:41 27.19637 64.41609 33783 ft 440 kts 232°
2026-04-29 15:42 27.15354 64.36691 33782 ft 440 kts 232°
2026-04-29 15:42 27.11057 64.31755 33779 ft 441 kts 232°
2026-04-29 15:43 27.06773 64.26837 33777 ft 441 kts 232°
2026-04-29 15:43 27.02486 64.21927 33784 ft 440 kts 232°
2026-04-29 15:44 26.98185 64.17017 33781 ft 440 kts 232°
2026-04-29 15:44 26.93906 64.12132 33787 ft 440 kts 232°
2026-04-29 15:45 26.89605 64.07254 33782 ft 440 kts 231°
2026-04-29 15:45 26.85294 64.02407 33781 ft 440 kts 231°
2026-04-29 15:46 26.80976 63.97556 33779 ft 440 kts 231°
2026-04-29 15:46 26.76670 63.92708 33777 ft 440 kts 231°
2026-04-29 15:47 26.73056 63.88638 33776 ft 440 kts 231°
2026-04-29 15:47 26.68761 63.83809 33773 ft 441 kts 231°
2026-04-29 15:48 26.64436 63.78948 33770 ft 441 kts 231°
2026-04-29 15:48 26.60104 63.74086 33770 ft 442 kts 231°
2026-04-29 15:49 26.55758 63.69222 33770 ft 442 kts 231°
2026-04-29 15:49 26.51410 63.64362 33768 ft 443 kts 231°
2026-04-29 15:50 26.47056 63.59486 33773 ft 443 kts 231°
2026-04-29 15:50 26.42719 63.54635 33772 ft 443 kts 231°
2026-04-29 15:51 26.38356 63.49770 33767 ft 443 kts 230°
2026-04-29 15:51 26.33974 63.44896 33767 ft 443 kts 230°
2026-04-29 15:52 26.29639 63.40072 33766 ft 443 kts 230°
2026-04-29 15:52 26.25283 63.35226 33758 ft 443 kts 230°
2026-04-29 15:53 26.20920 63.30381 33757 ft 443 kts 230°
2026-04-29 15:53 26.16559 63.25544 33745 ft 442 kts 230°
2026-04-29 15:54 26.12230 63.20746 33744 ft 442 kts 230°
2026-04-29 15:54 26.07877 63.15926 33735 ft 442 kts 230°
2026-04-29 15:55 26.03513 63.11103 33726 ft 442 kts 230°
2026-04-29 15:55 25.99170 63.06316 33724 ft 442 kts 230°
2026-04-29 15:56 25.94806 63.01485 33714 ft 442 kts 230°
2026-04-29 15:56 25.90455 62.96659 33711 ft 442 kts 230°
2026-04-29 15:57 25.86094 62.91835 33711 ft 443 kts 230°
2026-04-29 15:57 25.81731 62.87015 33706 ft 443 kts 230°
2026-04-29 15:58 25.77361 62.82192 33708 ft 443 kts 230°
2026-04-29 15:58 25.73015 62.77404 33706 ft 443 kts 230°
2026-04-29 15:59 25.68637 62.72595 33708 ft 443 kts 230°
2026-04-29 15:59 25.64258 62.67786 33711 ft 443 kts 230°
2026-04-29 16:00 25.59872 62.62981 33712 ft 443 kts 230°
2026-04-29 16:00 25.55485 62.58158 33714 ft 443 kts 230°
2026-04-29 16:01 25.51098 62.53347 33716 ft 444 kts 229°
2026-04-29 16:01 25.46686 62.48524 33723 ft 444 kts 229°
2026-04-29 16:02 25.42324 62.43750 33719 ft 444 kts 229°
2026-04-29 16:02 25.37918 62.38940 33719 ft 445 kts 229°
2026-04-29 16:03 25.33512 62.34143 33721 ft 445 kts 229°
2026-04-29 16:03 25.29071 62.29301 33705 ft 445 kts 229°
2026-04-29 16:04 25.24687 62.24535 33711 ft 445 kts 229°
2026-04-29 16:04 25.20271 62.19730 33720 ft 445 kts 229°
2026-04-29 16:05 25.15850 62.14928 33713 ft 446 kts 229°
2026-04-29 16:05 25.11421 62.10126 33715 ft 446 kts 229°
2026-04-29 16:06 25.06986 62.05325 33708 ft 446 kts 229°
2026-04-29 16:06 25.02584 62.00551 33715 ft 447 kts 229°
2026-04-29 16:07 24.98148 61.95752 33715 ft 447 kts 229°
2026-04-29 16:07 24.93709 61.90946 33719 ft 447 kts 229°
2026-04-29 16:08 24.89259 61.86148 33719 ft 448 kts 229°
2026-04-29 16:08 24.84808 61.81352 33724 ft 448 kts 229°
2026-04-29 16:09 24.80357 61.76551 33721 ft 448 kts 229°
2026-04-29 16:09 24.75895 61.71756 33727 ft 449 kts 229°
2026-04-29 16:10 24.71418 61.66955 33728 ft 449 kts 229°
2026-04-29 16:10 24.66942 61.62155 33730 ft 450 kts 229°
2026-04-29 16:11 24.62458 61.57344 33749 ft 450 kts 229°
2026-04-29 16:11 24.58006 61.52572 33735 ft 450 kts 228°
2026-04-29 16:12 24.53512 61.47770 33737 ft 450 kts 228°
2026-04-29 16:12 24.49017 61.42970 33739 ft 451 kts 228°
2026-04-29 16:13 24.44520 61.38168 33739 ft 451 kts 228°
2026-04-29 16:13 24.40636 61.32871 33730 ft 443 kts 245°
2026-04-29 16:14 24.38592 61.26580 33730 ft 437 kts 259°
2026-04-29 16:14 24.37251 61.20061 33748 ft 438 kts 259°
2026-04-29 16:15 24.35899 61.13553 33754 ft 438 kts 259°
2026-04-29 16:15 24.34535 61.07039 33742 ft 438 kts 259°
2026-04-29 16:16 24.33175 61.00575 33745 ft 438 kts 259°
2026-04-29 16:16 24.31803 60.94058 33740 ft 438 kts 259°
2026-04-29 16:17 24.30439 60.87548 33743 ft 439 kts 259°
2026-04-29 16:17 24.29066 60.81034 33742 ft 439 kts 258°
2026-04-29 16:18 24.27691 60.74520 33748 ft 439 kts 258°
2026-04-29 16:18 24.26316 60.68002 33749 ft 439 kts 258°
2026-04-29 16:19 24.24932 60.61478 33744 ft 439 kts 258°
2026-04-29 16:19 24.23550 60.54958 33746 ft 439 kts 258°
2026-04-29 16:20 24.22179 60.48489 33751 ft 439 kts 258°
2026-04-29 16:20 24.20786 60.41987 33741 ft 438 kts 258°
2026-04-29 16:21 24.19388 60.35485 33743 ft 438 kts 258°
2026-04-29 16:21 24.17996 60.28986 33744 ft 438 kts 258°
2026-04-29 16:22 24.16603 60.22486 33743 ft 438 kts 258°
2026-04-29 16:22 24.15200 60.15984 33746 ft 438 kts 258°
2026-04-29 16:23 24.13803 60.09494 33743 ft 438 kts 258°
2026-04-29 16:23 24.12409 60.03001 33746 ft 438 kts 258°
2026-04-29 16:24 24.11017 59.96556 33746 ft 438 kts 258°
2026-04-29 16:24 24.09605 59.90075 33743 ft 438 kts 258°
2026-04-29 16:25 24.08191 59.83597 33738 ft 438 kts 258°
2026-04-29 16:25 24.06776 59.77112 33744 ft 438 kts 258°
2026-04-29 16:26 24.05364 59.70627 33742 ft 438 kts 258°
2026-04-29 16:26 24.03944 59.64144 33743 ft 438 kts 258°
2026-04-29 16:27 24.02512 59.57662 33744 ft 438 kts 258°
2026-04-29 16:27 24.01079 59.51181 33750 ft 438 kts 258°
2026-04-29 16:28 23.99654 59.44705 33749 ft 438 kts 258°
2026-04-29 16:28 23.98235 59.38248 33751 ft 438 kts 258°
2026-04-29 16:29 23.96807 59.31779 33758 ft 438 kts 258°
2026-04-29 16:29 23.95369 59.25300 33757 ft 438 kts 258°
2026-04-29 16:30 23.93950 59.18813 33758 ft 437 kts 262°
2026-04-29 16:30 23.93963 59.12227 33757 ft 435 kts 281°
2026-04-29 16:31 23.96056 59.06032 33759 ft 436 kts 294°
2026-04-29 16:31 23.98636 59.00037 33772 ft 435 kts 294°
2026-04-29 16:32 24.01171 58.94072 33771 ft 435 kts 294°
2026-04-29 16:32 24.03722 58.88079 33778 ft 434 kts 294°
2026-04-29 16:33 24.07558 58.79073 33783 ft 434 kts 294°
2026-04-29 16:33 24.10089 58.73123 33784 ft 433 kts 294°
2026-04-29 16:34 24.12624 58.67149 33787 ft 432 kts 294°
2026-04-29 16:34 24.15159 58.61180 33785 ft 432 kts 294°
2026-04-29 16:35 24.17264 58.56229 33783 ft 431 kts 294°
2026-04-29 16:35 24.19795 58.50266 33784 ft 431 kts 294°
2026-04-29 16:36 24.22312 58.44309 33782 ft 430 kts 294°
2026-04-29 16:36 24.24822 58.38366 33784 ft 430 kts 294°
2026-04-29 16:37 24.27326 58.32420 33786 ft 429 kts 294°
2026-04-29 16:37 24.29404 58.27486 33789 ft 429 kts 294°
2026-04-29 16:38 24.32328 58.20555 33789 ft 428 kts 294°
2026-04-29 16:38 24.34821 58.14638 33790 ft 427 kts 293°
2026-04-29 16:39 24.37306 58.08721 33793 ft 427 kts 293°
2026-04-29 16:39 24.39784 58.02802 33788 ft 426 kts 293°
2026-04-29 16:40 24.42239 57.96928 33789 ft 427 kts 293°
2026-04-29 16:40 24.44708 57.91019 33790 ft 426 kts 293°
2026-04-29 16:41 24.47197 57.85063 33789 ft 426 kts 294°
2026-04-29 16:41 24.49673 57.79137 33791 ft 426 kts 293°
2026-04-29 16:42 24.52047 57.73190 33797 ft 425 kts 291°
2026-04-29 16:42 24.54281 57.67203 33796 ft 425 kts 291°
2026-04-29 16:43 24.56514 57.61184 33801 ft 425 kts 291°
2026-04-29 16:43 24.58782 57.55163 33802 ft 425 kts 291°
2026-04-29 16:44 24.61052 57.49191 33801 ft 425 kts 291°
2026-04-29 16:44 24.63328 57.43196 33802 ft 424 kts 291°
2026-04-29 16:45 24.65589 57.37202 33804 ft 424 kts 291°
2026-04-29 16:45 24.67894 57.31087 33801 ft 424 kts 291°
2026-04-29 16:46 24.70146 57.25098 33805 ft 423 kts 291°
2026-04-29 16:46 24.72403 57.19109 33807 ft 422 kts 291°
2026-04-29 16:47 24.73520 57.16138 33572 ft 419 kts 291°
2026-04-29 16:47 24.74630 57.13169 33319 ft 418 kts 291°
2026-04-29 16:47 24.75726 57.10231 33065 ft 419 kts 291°
2026-04-29 16:47 24.76839 57.07251 32814 ft 419 kts 291°
2026-04-29 16:48 24.77947 57.04291 32410 ft 419 kts 291°
2026-04-29 16:48 24.79057 57.01317 31496 ft 421 kts 291°
2026-04-29 16:48 24.80177 56.98320 30586 ft 423 kts 290°
2026-04-29 16:48 24.81299 56.95320 29623 ft 425 kts 290°
2026-04-29 16:49 24.82427 56.92300 28551 ft 427 kts 290°
2026-04-29 16:49 24.83559 56.89270 27511 ft 428 kts 290°
2026-04-29 16:49 24.84692 56.86230 26428 ft 431 kts 290°
2026-04-29 16:49 24.85829 56.83172 25345 ft 433 kts 290°
2026-04-29 16:50 24.86974 56.80083 24286 ft 435 kts 291°
2026-04-29 16:50 24.88120 56.76992 23249 ft 436 kts 291°
2026-04-29 16:50 24.89256 56.73930 22129 ft 436 kts 291°
2026-04-29 16:50 24.90397 56.70863 21339 ft 430 kts 291°
2026-04-29 16:51 24.91526 56.67831 20560 ft 425 kts 290°
2026-04-29 16:51 24.92641 56.64826 19781 ft 421 kts 290°
2026-04-29 16:51 24.93751 56.61830 19004 ft 418 kts 290°
2026-04-29 16:51 24.94788 56.59028 18304 ft 416 kts 290°
2026-04-29 16:52 24.95845 56.56209 17524 ft 414 kts 291°
2026-04-29 16:52 24.97090 56.53551 16789 ft 414 kts 300°
2026-04-29 16:52 24.98582 56.51046 16103 ft 412 kts 301°
2026-04-29 16:52 25.00151 56.48421 15380 ft 410 kts 301°
2026-04-29 16:53 25.01720 56.45781 14683 ft 408 kts 302°
2026-04-29 16:53 25.03265 56.43177 14002 ft 406 kts 302°
2026-04-29 16:53 25.04796 56.40590 13315 ft 404 kts 302°
2026-04-29 16:53 25.06323 56.38009 12631 ft 401 kts 302°
2026-04-29 16:54 25.07840 56.35454 11996 ft 396 kts 303°
2026-04-29 16:54 25.09335 56.32939 11517 ft 387 kts 303°
2026-04-29 16:54 25.10799 56.30477 11021 ft 379 kts 303°
2026-04-29 16:54 25.12216 56.28096 10905 ft 360 kts 303°
2026-04-29 16:55 25.13565 56.25829 10789 ft 343 kts 303°
2026-04-29 16:55 25.14846 56.23673 10671 ft 327 kts 303°
2026-04-29 16:55 25.16044 56.21655 10565 ft 313 kts 303°
2026-04-29 16:55 25.17234 56.19648 10440 ft 299 kts 303°
2026-04-29 16:56 25.18343 56.17773 10294 ft 287 kts 303°
2026-04-29 16:56 25.19424 56.15945 10106 ft 279 kts 304°
2026-04-29 16:56 25.20480 56.14156 10027 ft 277 kts 304°
2026-04-29 16:56 25.21527 56.12384 9801 ft 276 kts 304°
2026-04-29 16:57 25.22584 56.10605 9357 ft 278 kts 304°
2026-04-29 16:57 25.23528 56.09012 9243 ft 267 kts 304°
2026-04-29 16:57 25.24522 56.07331 9115 ft 255 kts 304°
2026-04-29 16:57 25.25486 56.05737 8994 ft 243 kts 310°
2026-04-29 16:58 25.26721 56.04518 8754 ft 236 kts 327°
2026-04-29 16:58 25.28216 56.03798 8032 ft 243 kts 342°
2026-04-29 16:58 25.29881 56.03304 7181 ft 252 kts 342°
2026-04-29 16:58 25.31606 56.02793 6333 ft 261 kts 342°
2026-04-29 16:59 25.33373 56.02265 5574 ft 264 kts 342°
2026-04-29 16:59 25.35140 56.01737 4923 ft 262 kts 342°
2026-04-29 16:59 25.36863 56.01223 4513 ft 250 kts 341°
2026-04-29 16:59 25.38518 56.00729 4174 ft 236 kts 341°
2026-04-29 17:00 25.40063 56.00267 3887 ft 223 kts 341°
2026-04-29 17:00 25.41509 55.99834 3627 ft 211 kts 340°
2026-04-29 17:00 25.42891 55.99420 3369 ft 200 kts 340°
2026-04-29 17:00 25.44195 55.99030 3128 ft 188 kts 340°
2026-04-29 17:01 25.45423 55.98662 2893 ft 177 kts 340°
2026-04-29 17:01 25.46598 55.98309 2668 ft 171 kts 340°
2026-04-29 17:01 25.47718 55.97973 2451 ft 161 kts 340°
2026-04-29 17:01 25.48750 55.97664 2272 ft 150 kts 340°
2026-04-29 17:02 25.49759 55.97363 2080 ft 150 kts 341°
2026-04-29 17:02 25.50767 55.97063 1875 ft 149 kts 340°
2026-04-29 17:02 25.51769 55.96765 1679 ft 150 kts 341°
2026-04-29 17:02 25.52793 55.96451 1542 ft 155 kts 343°
2026-04-29 17:03 25.53835 55.96140 1332 ft 152 kts 343°
2026-04-29 17:03 25.54850 55.95834 1133 ft 151 kts 343°
2026-04-29 17:03 25.55860 55.95522 905 ft 152 kts 344°
2026-04-29 17:03 25.56875 55.95226 735 ft 149 kts 344°
2026-04-29 17:04 25.57884 55.94929 511 ft 150 kts 344°
2026-04-29 17:04 25.58875 55.94630 319 ft 149 kts 344°
2026-04-29 17:04 25.59873 55.94327 141 ft 149 kts 343°
2026-04-29 17:04 25.60754 55.94056 111 ft 99 kts 345°
2026-04-29 17:05 25.61204 55.93912 113 ft 40 kts 345°
2026-04-29 17:05 25.61413 55.93854 113 ft 27 kts 345°
2026-04-29 17:05 25.61433 55.93854 114 ft 0 kts 37°
2026-04-29 17:05 25.61436 55.93857 114 ft 5 kts 43°
2026-04-29 17:06 25.61450 55.93934 113 ft 11 kts 83°
2026-04-29 17:06 25.61466 55.94011 110 ft 10 kts 66°
2026-04-29 17:06 25.61492 55.94074 111 ft 8 kts 62°
2026-04-29 17:06 25.61515 55.94104 113 ft 7 kts 50°
2026-04-29 17:07 25.61527 55.94134 113 ft 2 kts 84°
2026-04-29 17:07 25.61529 55.94150 112 ft 2 kts 83°
2026-04-29 17:07 25.61531 55.94163 103 ft 4 kts 78°
2026-04-29 17:07 25.61537 55.94188 112 ft 0 kts 76°